This is the latest recevied weather packets stored in our database for station/object SP9WP-10. If no packets are shown the sender has not sent any weather packets the latest 10 day(s).
| Time | Temp. | Humidity | Pressure | Rain* | Wind** | Luminosity | Snow |
|---|---|---|---|---|---|---|---|
| 1787587740 | 30.56° C | 39% | 998.8 hPa | - | - | - | - |
| 1787587140 | 30.56° C | 38% | 998.9 hPa | - | - | - | - |
| 1787586540 | 30.56° C | 35% | 999 hPa | - | - | - | - |
| 1787585940 | 30.56° C | 36% | 999 hPa | - | - | - | - |
| 1787585340 | 30.56° C | 36% | 999 hPa | - | - | - | - |
| 1787584740 | 31.11° C | 36% | 999.1 hPa | - | - | - | - |
| 1787584140 | 30.56° C | 36% | 999.2 hPa | - | - | - | - |
| 1787583539 | 30.56° C | 37% | 999.2 hPa | - | - | - | - |
| 1787582939 | 30.56° C | 38% | 999.3 hPa | - | - | - | - |
| 1787582339 | 30.56° C | 38% | 999.2 hPa | - | - | - | - |
| 1787581739 | 30.56° C | 38% | 999.3 hPa | - | - | - | - |
| 1787581139 | 30° C | 38% | 999.2 hPa | - | - | - | - |
| 1787580539 | 30° C | 39% | 999.3 hPa | - | - | - | - |
| 1787579939 | 29.44° C | 39% | 999.3 hPa | - | - | - | - |
| 1787579338 | 29.44° C | 39% | 999.4 hPa | - | - | - | - |
| 1787578738 | 28.89° C | 37% | 999.4 hPa | - | - | - | - |
| 1787578138 | 28.89° C | 37% | 999.4 hPa | - | - | - | - |
| 1787577538 | 28.89° C | 38% | 999.4 hPa | - | - | - | - |
| 1787576938 | 28.89° C | 37% | 999.4 hPa | - | - | - | - |
| 1787576338 | 28.89° C | 39% | 999.5 hPa | - | - | - | - |
| 1787575738 | 28.33° C | 39% | 999.6 hPa | - | - | - | - |
| 1787575137 | 28.33° C | 40% | 999.6 hPa | - | - | - | - |
| 1787574537 | 28.33° C | 38% | 999.7 hPa | - | - | - | - |
| 1787573937 | 27.78° C | 39% | 999.7 hPa | - | - | - | - |
| 1787573337 | 28.33° C | 40% | 999.8 hPa | - | - | - | - |
* Rain since midnight (hover to see other rain measurements)
** Current wind speed in m/s (hover to see current wind gust speed)